Weather History for Park Rapids, MN

Change the Weather History Date:

Thursday, September 20, 2012

  Actual Average Record
Temperature  
Mean Temperature 50 °F -  
Max Temperature 61 °F 64 °F 81 °F (1960)
Min Temperature 42 °F 43 °F 23 °F (1973)
Degree Days  
Heating Degree Days 14    
Moisture  
Dew Point 36 °F    
Average Humidity 62    
Maximum Humidity 92    
Minimum Humidity 32    
Precipitation  
Precipitation 0.08 in - - ()
Sea Level Pressure  
Sea Level Pressure 29.88 in    
Wind  
Wind Speed 11 mph (WNW)    
Max Wind Speed 17 mph    
Max Gust Speed 23 mph    
Visibility 10 miles    
Events Rain    
Averages and records for this station are not official NWS values.
T = Trace of Precipitation, MM = Missing Value Source: NWS Daily Summary

Daily Weather History Graph

Daily Weather History Graph

Search for Another Location

Airport:

Trip Planner

Search our weather history database for the weather conditions in past years. The results will help you decide how hot, cold, wet, or windy it might be!

Date:

Astronomy

Sep. 20, 2012 Rise Set
Actual Time 7:05 AM CDT 7:20 PM CDT
Civil Twilight 6:34 AM CDT 7:51 PM CDT
Nautical Twilight 5:58 AM CDT 8:26 PM CDT
Astronomical Twilight 5:21 AM CDT 9:03 PM CDT
Moon 12:47 PM CDT (9/20) 10:00 PM CDT (9/20)
Length of Visible Light 13h 16m
Length of Day
12h 15m
Waxing Crescent, 27% of the Moon is Illuminated
Sep 20
Waxing Crescent
Sep 22
First Quarter
Sep 29
Full
Oct 8
Last Quarter
Oct 15
New

Hourly Weather History & Observations

Time (CDT) Temp. Windchill Dew Point Humidity Pressure Visibility Wind Dir Wind Speed Gust Speed Precip Events Conditions
12:53 AM 46.0 °F 41.4 °F 36.0 °F 68% 29.84 in 10.0 mi WNW 9.2 mph - N/A   Clear
1:53 AM 45.0 °F 39.3 °F 36.0 °F 71% 29.85 in 10.0 mi WNW 11.5 mph - N/A   Scattered Clouds
2:53 AM 46.0 °F 39.9 °F 36.0 °F 68% 29.86 in 10.0 mi WNW 13.8 mph - N/A   Scattered Clouds
3:53 AM 44.1 °F 38.6 °F 35.1 °F 71% 29.86 in 10.0 mi WNW 10.4 mph - N/A   Mostly Cloudy
4:53 AM 42.8 °F 36.6 °F 35.6 °F 76% 29.85 in 10.0 mi WNW 11.5 mph - N/A   Clear
5:53 AM 44.1 °F 38.6 °F 35.1 °F 71% 29.88 in 10.0 mi WNW 10.4 mph - N/A   Clear
6:53 AM 43.0 °F 37.2 °F 36.0 °F 76% 29.90 in 10.0 mi WNW 10.4 mph - N/A   Clear
7:53 AM 44.1 °F 38.1 °F 36.0 °F 73% 29.92 in 10.0 mi WNW 11.5 mph - N/A   Clear
8:53 AM 46.9 °F - 36.0 °F 66% 29.92 in 10.0 mi NW 11.5 mph - N/A   Mostly Cloudy
9:53 AM 50.0 °F - 37.0 °F 61% 29.93 in 10.0 mi WNW 11.5 mph - N/A   Clear
10:53 AM 52.0 °F - 36.0 °F 54% 29.93 in 10.0 mi NW 11.5 mph - N/A   Clear
11:53 AM 57.9 °F - 34.0 °F 41% 29.93 in 10.0 mi NW 11.5 mph 20.7 mph N/A   Overcast
12:53 PM 59.0 °F - 33.1 °F 38% 29.92 in 10.0 mi WNW 17.3 mph 20.7 mph N/A   Overcast
1:53 PM 57.9 °F - 30.0 °F 35% 29.91 in 10.0 mi NW 15.0 mph 20.7 mph N/A   Overcast
2:53 PM 59.0 °F - 28.9 °F 32% 29.89 in 10.0 mi WNW 13.8 mph 18.4 mph N/A   Scattered Clouds
3:53 PM 59.0 °F - 30.0 °F 33% 29.88 in 10.0 mi WNW 11.5 mph - N/A   Mostly Cloudy
4:53 PM 59.0 °F - 30.9 °F 35% 29.85 in 10.0 mi West 11.5 mph - N/A   Mostly Cloudy
5:42 PM 57.2 °F - 33.8 °F 41% 29.83 in 10.0 mi WNW 13.8 mph 23.0 mph 0.00 in   Overcast
5:53 PM 57.9 °F - 32.0 °F 37% 29.85 in 10.0 mi WNW 16.1 mph 23.0 mph 0.00 in   Overcast
6:53 PM 50.0 °F - 41.0 °F 71% 29.89 in 10.0 mi NNW 9.2 mph - 0.00 in Rain Light Rain
7:53 PM 46.9 °F - 42.1 °F 83% 29.91 in 10.0 mi NNW 9.2 mph - 0.02 in Rain Light Rain
8:53 PM 46.9 °F - 43.0 °F 86% 29.88 in 10.0 mi WSW 9.2 mph - 0.06 in Rain Light Rain
9:53 PM 46.9 °F - 42.1 °F 83% 29.87 in 10.0 mi West 12.7 mph - 0.00 in   Overcast
10:53 PM 44.1 °F 40.8 °F 41.0 °F 89% 29.88 in 10.0 mi West 5.8 mph - N/A   Mostly Cloudy
11:53 PM 42.1 °F - 39.9 °F 92% 29.87 in 10.0 mi Calm Calm - N/A   Mostly Cloudy